This demonstration page uses our WeatherBlox Daily Observations layout. Learn more.

Left ArrowRight Arrow

34.16533, -84.80231

Hourly Observations for April 29, 2020

Temp ( °F °C ) Dew Point ( °F °C ) Humidity (%) Winds ( mph kmh ) Pressure ( in mb ) Visibility ( mi km ) Precip ( " mm )
12:53 am 00:53 Clear 57 13.9 49 9.4 74 74 Calm 29.97 1015 10 16 0.00 0.00
1:53 am 01:53 Mostly Clear 54 12.2 48 8.9 80 80 SE 5 7 29.96 1015 10 16 0.00 0.00
2:53 am 02:53 Mostly Cloudy 64 17.8 48 8.9 56 56 SE 3 6 29.95 1014 10 16 0.00 0.00
3:53 am 03:53 Mostly Cloudy 61 16.1 49 9.4 65 65 ESE 3 6 29.95 1014 10 16 0.00 0.00
4:53 am 04:53 Mostly Cloudy 58 14.4 51 10.6 78 78 Calm 29.93 1014 10 16 0.00 0.00
5:53 am 05:53 Mostly Clear 60 15.6 51 10.6 72 72 Calm 29.93 1014 10 16 0.00 0.00
6:53 am 06:53 Sunny 56 13.3 52 11.1 87 87 SE 3 6 29.95 1014 10 16 0.00 0.00
7:27 am 07:27 Mostly Cloudy 59 15 52 11.1 78 78 ESE 3 6 29.98 1015 10 16 0.00 0.00
7:35 am 07:35 Partly Cloudy 59 15 52 11.1 78 78 SE 3 6 29.97 1015 10 16 0.00 0.00
7:53 am 07:53 Partly Cloudy 60 15.6 52 11.1 75 75 Calm 29.93 1014 10 16 0.00 0.00
8:10 am 08:10 Mostly Cloudy 61 16.1 52 11.1 72 72 E 3 6 29.94 1014 10 16 0.00 0.00
8:50 am 08:50 Partly Cloudy 63 17 54 12 73 73 Calm 29.95 1014 10 16 0.00 0.00
8:53 am 08:53 Mostly Sunny 64 17.8 54 12.2 70 70 Calm 29.93 1014 10 16 0.00 0.00
9:53 am 09:53 Sunny 67 19.4 55 12.8 66 66 SE 8 13 29.87 1011 10 16 0.00 0.00
10:53 am 10:53 Mostly Cloudy 67 19.4 53 11.7 61 61 SSE 9 15 29.86 1011 10 16 0.00 0.00
11:53 am 11:53 Mostly Sunny 69 20.6 55 12.8 61 61 S 9 15 29.84 1011 10 16 0.00 0.00
12:53 pm 12:53 Cloudy with Light Rain 67 19.4 57 13.9 71 71 S 12 19 29.80 1009 10 16 0.00 0.00
1:53 pm 13:53 Cloudy 68 20 60 15.6 76 76 S 18 30 29.77 1008 10 16 0.00 0.00
2:53 pm 14:53 Cloudy with Light Rain 68 20 61 16.1 78 78 S 10 17 29.77 1008 8 13 0.00 0.00
3:15 pm 15:15 Cloudy with Light Rain 69 20.6 62 16.7 78 78 S 9 15 29.77 1008 10 16 0.00 0.00
3:53 pm 15:53 Cloudy 69 20.6 63 17.2 81 81 S 10 17 29.74 1007 10 16 0.01 0.25
4:53 pm 16:53 Cloudy 71 21.7 63 17.2 76 76 S 7 11 29.73 1007 10 16 0.00 0.00
5:53 pm 17:53 Cloudy 72 22.2 62 16.7 71 71 SSW 10 17 29.71 1006 10 16 0.00 0.00
6:37 pm 18:37 Cloudy with Heavy Rain 66 18.9 61 16.1 84 84 undefined N/A 29.75 1007 2 2 0.08 2.03
6:40 pm 18:40 Cloudy with Heavy Rain 64 17.8 61 16.1 90 90 VRB 3 6 29.76 1008 1 1 0.21 5.33
6:44 pm 18:44 Cloudy with Heavy Rain 63 17.2 61 16.1 93 93 VRB 7 11 29.76 1008 0 0 0.36 9.14
6:49 pm 18:49 Cloudy with Heavy Rain 63 17 61 16 94 94 VRB 3 6 29.76 1008 1 1 0.45 11.43
6:53 pm 18:53 Cloudy with Heavy Rain 63 17.2 60 15.6 90 90 VRB 3 6 29.74 1007 1 1 0.51 12.95
7:02 pm 19:02 Cloudy with Rain 62 16.7 59 15 90 90 VRB 6 9 29.76 1008 1 2 0.05 1.27
7:05 pm 19:05 Cloudy with Rain 62 16.7 59 15 90 90 S 6 9 29.76 1008 2 3 0.06 1.52
7:19 pm 19:19 Cloudy with Rain 62 16.7 59 15 90 90 VRB 3 6 29.77 1008 2 3 0.13 3.30
7:41 pm 19:41 Cloudy with Rain 62 16.7 59 15 90 90 undefined N/A 29.79 1009 2 3 0.28 7.11
7:53 pm 19:53 Cloudy with Light Rain 62 16.7 59 15 90 90 VRB 6 9 29.78 1008 4 6 0.30 7.62
8:10 pm 20:10 Cloudy with Light Rain 62 16.7 59 15 90 90 Calm 29.80 1009 10 16 0.01 0.25
8:23 pm 20:23 Cloudy with Light Rain 62 16.7 59 15 90 90 Calm 29.80 1009 10 16 0.02 0.51
8:53 pm 20:53 Cloudy 61 16.1 59 15 93 93 Calm 29.77 1008 10 16 0.02 0.51
9:53 pm 21:53 Cloudy with Light Rain 61 16.1 59 15 93 93 N 3 6 29.79 1009 8 13 0.02 0.51
10:00 pm 22:00 Cloudy with Light Rain 61 16.1 58 14.4 90 90 N 7 11 29.82 1010 9 14 0.00 0.00
10:09 pm 22:09 Cloudy with Light Rain 60 15.6 57 13.9 90 90 Calm 29.83 1010 7 11 0.01 0.25
10:26 pm 22:26 Cloudy with Rain 60 15.6 57 13.9 90 90 E 3 6 29.84 1011 7 11 0.04 1.02
10:36 pm 22:36 Cloudy with Rain 59 15 56 13.3 90 90 E 6 9 29.85 1011 6 10 0.06 1.52
10:53 pm 22:53 Cloudy with Light Rain 58 14.4 55 12.8 90 90 ENE 5 7 29.79 1009 9 14 0.07 1.78
11:21 pm 23:21 Cloudy with Light Rain 58 14.4 55 12.8 90 90 Calm 29.81 1009 10 16 0.01 0.25
11:53 pm 23:53 Cloudy 57 13.9 55 12.8 93 93 Calm 29.77 1008 10 16 0.01 0.25
11:59 pm 23:59 Cloudy 57 13.9 55 12.8 93 93 Calm 29.80 1009 10 16 0.00 0.00

Powered by AerisWeather